Location: Newark
(19.2833°N, 166.6000°W)
Time: 22:31:48
(UTC+00:00)

N. Korean satellite - Visible Passes

Search period start: 17 January 2020 00:00
Search period end: 27 January 2020 00:00
Orbit: 454 x 508 km, 97.2° (Epoch: 17 January)

Date Brightness Start Highest point End Pass type
(mag) Time Alt. Az. Time Alt. Az. Time Alt. Az.
17 Jan 7.2 17:08:54 10° NNW 17:12:05 32° WNW 17:15:20 10° SW visible
18 Jan 6.5 16:43:07 10° N 16:46:41 89° WNW 16:50:17 10° SSW visible
19 Jan 8.4 16:17:59 10° NE 16:21:13 33° E 16:24:31 10° SSE visible
20 Jan 9.9 15:53:51 10° ENE 15:55:43 14° E 15:57:37 10° SE visible
21 Jan 6.8 17:00:06 10° N 17:03:32 44° WNW 17:07:00 10° SSW visible
22 Jan 7.0 16:34:33 10° NNE 16:38:06 65° E 16:41:43 10° S visible
23 Jan 9.0 16:09:37 10° NE 16:12:38 25° E 16:15:40 10° SSE visible
24 Jan 10.2 15:46:37 10° E 15:47:07 10° E 15:47:37 10° ESE visible
25 Jan 10.2 05:16:26 10° WSW 05:17:45 12° W 05:19:04 10° WNW visible
25 Jan 6.5 16:51:22 10° N 16:54:57 63° WNW 16:58:35 10° SSW visible
26 Jan 7.7 16:26:01 10° NNE 16:29:31 46° E 16:33:03 10° S visible
